FW1251 Weather Reports


Display with metric or nautical units.
time (UTC)temp
F
wind
direction
speed
MPH
gust
MPH
rain 1hr
in
rain 24hr
in
rain mn
in
humidity
%
barometer
mb
20260504081540 54 360 0.0 0.0 0.00 0.02 0.00 92 1019.9
20260504050019 57 360 0.0 0.0 0.00 0.02 0.02 89 1021.1
20260504044522 57 360 0.0 0.0 0.00 0.02 0.02 89 1021.1
20260504043019 57 360 0.0 0.0 0.00 0.02 0.02 88 1021.2
20260504041519 58 360 0.0 0.0 0.00 0.02 0.02 88 1021.2
20260504040018 58 360 0.0 0.0 0.00 0.02 0.02 88 1021.1
20260504034528 58 360 0.0 1.0 0.00 0.02 0.02 87 1021.1
20260504033033 59 360 0.0 0.0 0.00 0.02 0.02 86 1021.1
20260504031517 59 360 0.0 1.0 0.00 0.02 0.02 86 1021.3
20260504030016 60 360 0.0 0.0 0.00 0.02 0.02 85 1021.1
20260504024535 60 360 0.0 1.0 0.00 0.02 0.02 84 1021.0
20260504023015 61 360 0.0 0.0 0.00 0.02 0.02 82 1020.9
20260504021515 61 360 0.0 0.0 0.00 0.02 0.02 81 1020.8
20260504020016 62 360 0.0 0.0 0.00 0.02 0.02 80 1020.7
20260504014514 63 360 0.0 0.0 0.00 0.02 0.02 78 1020.6
20260504013016 64 130 0.0 0.0 0.01 0.02 0.02 77 1020.4
20260504011514 65 360 0.0 0.0 0.01 0.02 0.02 74 1020.3
20260504010013 66 132 0.0 0.0 0.01 0.03 0.02 70 1020.1
20260504004532 68 130 0.0 0.0 0.01 0.03 0.02 67 1020.1
20260504003011 70 360 0.0 0.0 0.00 0.02 0.01 63 1020.0
20260504001511 71 360 0.0 1.0 0.00 0.02 0.01 62 1019.9
20260504000010 72 360 0.0 0.0 0.00 0.02 0.01 61 1019.8
20260503234510 73 360 0.0 0.0 0.00 0.02 0.01 59 1019.8
20260503233009 74 360 0.0 0.0 0.00 0.02 0.01 53 1020.0
20260503231509 74 119 0.0 3.0 0.00 0.02 0.01 50 1020.0
20260503230012 74 343 0.0 2.0 0.00 0.02 0.01 52 1019.9
20260503224507 75 346 1.0 5.0 0.00 0.02 0.01 51 1020.0
20260503223006 75 308 2.0 4.0 0.00 0.02 0.01 49 1020.1
20260503221506 75 351 2.0 5.0 0.00 0.02 0.01 49 1020.1
20260503220005 76 5 0.0 3.0 0.00 0.02 0.01 49 1020.3
20260503214502 76 49 0.0 4.0 0.00 0.02 0.01 50 1020.5
20260503213004 77 319 1.0 5.0 0.00 0.02 0.01 47 1020.7
20260503211606 76 294 0.0 4.0 0.00 0.02 0.01 46 1020.9
20260503210058 77 40 0.0 4.0 0.00 0.02 0.01 49 1021.2
20260503204559 76 236 0.0 5.0 0.00 0.02 0.01 45 1021.4
20260503203057 76 12 1.0 4.0 0.00 0.02 0.01 46 1021.7
20260503201555 76 78 0.0 4.0 0.00 0.02 0.01 47 1021.8
20260503200054 76 329 2.0 8.0 0.00 0.02 0.01 47 1022.0
20260503194553 76 5 1.0 5.0 0.00 0.02 0.01 47 1022.4
20260503193057 76 10 2.0 5.0 0.00 0.02 0.01 49 1022.6
20260503191551 75 331 1.0 6.0 0.00 0.02 0.01 48 1022.8
20260503190052 75 61 2.0 8.0 0.00 0.02 0.01 48 1023.1
20260503184601 75 28 3.0 6.0 0.00 0.02 0.01 48 1023.5
20260503183047 74 22 3.0 6.0 0.00 0.02 0.01 48 1023.5
20260503181547 75 13 1.0 5.0 0.00 0.02 0.01 49 1023.7
20260503180045 74 344 0.0 6.0 0.00 0.02 0.01 53 1023.9
20260503174601 73 28 1.0 8.0 0.00 0.02 0.01 52 1023.9
20260503173046 74 21 3.0 6.0 0.00 0.02 0.01 52 1024.2
20260503171541 73 267 1.0 5.0 0.00 0.02 0.01 53 1024.6